Location: Peebles
(55.6412°N, 3.1714°W)
Time: 15:03:41
(UTC+01:00)

deb Agena D - Pass Details

Date: 20 September 2024
Orbit: 793 x 976 km, 99.8° (Epoch: 03 October)

Event Time Altitude Azimuth Distance (km) Brightness Sun altitude
Rises 05:40:33 0° 15° (NNE) 3,427 9.9 -11.1°
Reaches altitude 10° 05:43:24 10° 360° (N) 2,518 8.9 -10.7°
Maximum altitude 05:47:28 21° 313° (NW) 1,881 7.7 -10.2°
Enters shadow 05:51:22 11° 268° (W) 2,518 8.0 -9.7°
